TimeCDT,TemperatureF,Dew PointF,Humidity,Sea Level PressureIn,VisibilityMPH,Wind Direction,Wind SpeedMPH,Gust SpeedMPH,PrecipitationIn,Events,Conditions,WindDirDegrees,DateUTC
12:15 AM,75.2,71.6,89,30.29,10.0,Calm,Calm,-,N/A,,Clear,0,2013-07-17 05:15:00
12:55 AM,75.2,71.6,89,30.29,10.0,Calm,Calm,-,N/A,,Clear,0,2013-07-17 05:55:00
1:15 AM,73.4,69.8,88,30.29,7.0,Calm,Calm,-,N/A,,Clear,0,2013-07-17 06:15:00
1:35 AM,73.4,71.6,94,30.29,8.0,Calm,Calm,-,N/A,,Clear,0,2013-07-17 06:35:00
1:55 AM,73.4,69.8,88,30.29,10.0,Calm,Calm,-,N/A,,Clear,0,2013-07-17 06:55:00
2:15 AM,75.2,71.6,89,30.29,10.0,Calm,Calm,-,N/A,,Clear,0,2013-07-17 07:15:00
2:35 AM,73.4,69.8,88,30.30,10.0,Calm,Calm,-,N/A,,Clear,0,2013-07-17 07:35:00
2:55 AM,73.4,69.8,88,30.30,10.0,Calm,Calm,-,N/A,,Clear,0,2013-07-17 07:55:00
3:15 AM,71.6,69.8,94,30.30,10.0,Calm,Calm,-,N/A,,Clear,0,2013-07-17 08:15:00
3:35 AM,71.6,68.0,88,30.30,4.0,Calm,Calm,-,N/A,,Clear,0,2013-07-17 08:35:00
3:55 AM,69.8,68.0,94,30.30,4.0,Calm,Calm,-,N/A,,Clear,0,2013-07-17 08:55:00
4:15 AM,69.8,68.0,94,30.30,7.0,Calm,Calm,-,N/A,,Clear,0,2013-07-17 09:15:00
4:35 AM,69.8,68.0,94,30.30,3.0,Calm,Calm,-,N/A,,Clear,0,2013-07-17 09:35:00
4:55 AM,69.8,68.0,94,30.30,3.0,Calm,Calm,-,N/A,,Clear,0,2013-07-17 09:55:00
5:15 AM,69.8,66.2,88,30.31,4.0,Calm,Calm,-,N/A,,Clear,0,2013-07-17 10:15:00
5:35 AM,69.8,69.8,100,30.31,7.0,Calm,Calm,-,N/A,,Clear,0,2013-07-17 10:35:00
5:55 AM,69.8,66.2,88,30.31,3.0,Calm,Calm,-,N/A,,Clear,0,2013-07-17 10:55:00
6:15 AM,69.8,68.0,94,30.32,7.0,Calm,Calm,-,N/A,,Clear,0,2013-07-17 11:15:00
6:35 AM,71.6,69.8,94,30.32,6.0,Calm,Calm,-,N/A,,Clear,0,2013-07-17 11:35:00
6:55 AM,73.4,71.6,94,30.32,8.0,Calm,Calm,-,N/A,,Clear,0,2013-07-17 11:55:00
7:15 AM,77.0,71.6,83,30.32,10.0,Calm,Calm,-,N/A,,Clear,0,2013-07-17 12:15:00
7:35 AM,78.8,71.6,78,30.32,10.0,Calm,Calm,-,N/A,,Clear,0,2013-07-17 12:35:00
7:55 AM,80.6,73.4,79,30.33,10.0,SW,3.5,-,N/A,,Clear,220,2013-07-17 12:55:00
8:15 AM,82.4,73.4,74,30.33,10.0,SSW,4.6,-,N/A,,Clear,210,2013-07-17 13:15:00
8:35 AM,84.2,73.4,70,30.33,10.0,WSW,3.5,-,N/A,,Clear,240,2013-07-17 13:35:00
8:55 AM,87.8,73.4,62,30.33,10.0,West,4.6,-,N/A,,Clear,270,2013-07-17 13:55:00
9:15 AM,87.8,73.4,62,30.33,10.0,West,5.8,-,N/A,,Clear,270,2013-07-17 14:15:00
9:35 AM,87.8,73.4,62,30.32,10.0,West,5.8,-,N/A,,Clear,270,2013-07-17 14:35:00
9:55 AM,89.6,75.2,62,30.32,10.0,West,5.8,-,N/A,,Clear,280,2013-07-17 14:55:00
10:15 AM,89.6,75.2,62,30.32,10.0,WSW,5.8,-,N/A,,Clear,250,2013-07-17 15:15:00
10:35 AM,89.6,75.2,62,30.32,10.0,WNW,4.6,-,N/A,,Clear,300,2013-07-17 15:35:00
10:55 AM,91.4,75.2,59,30.32,10.0,NNW,4.6,-,N/A,,Clear,330,2013-07-17 15:55:00
11:15 AM,89.6,73.4,59,30.32,10.0,West,4.6,-,N/A,,Clear,270,2013-07-17 16:15:00
11:35 AM,89.6,73.4,59,30.31,10.0,WNW,3.5,-,N/A,,Partly Cloudy,300,2013-07-17 16:35:00
11:55 AM,89.6,73.4,59,30.31,10.0,Calm,Calm,-,N/A,,Mostly Cloudy,0,2013-07-17 16:55:00
12:15 PM,91.4,71.6,52,30.30,10.0,SW,3.5,-,N/A,,Mostly Cloudy,230,2013-07-17 17:15:00
12:35 PM,89.6,73.4,59,30.30,10.0,South,4.6,-,N/A,,Mostly Cloudy,170,2013-07-17 17:35:00
12:55 PM,93.2,73.4,52,30.29,10.0,SW,5.8,-,N/A,,Mostly Cloudy,230,2013-07-17 17:55:00
1:15 PM,95.0,73.4,49,30.29,10.0,SW,5.8,-,N/A,,Scattered Clouds,220,2013-07-17 18:15:00
1:35 PM,93.2,73.4,52,30.29,10.0,SW,5.8,-,N/A,,Mostly Cloudy,220,2013-07-17 18:35:00
1:55 PM,93.2,73.4,52,30.28,10.0,West,6.9,-,N/A,,Mostly Cloudy,270,2013-07-17 18:55:00
2:15 PM,93.2,73.4,52,30.27,10.0,SSW,4.6,-,N/A,,Partly Cloudy,200,2013-07-17 19:15:00
2:35 PM,93.2,73.4,52,30.27,10.0,SW,5.8,-,N/A,,Clear,220,2013-07-17 19:35:00
2:55 PM,93.2,73.4,52,30.26,10.0,Calm,Calm,-,N/A,,Scattered Clouds,0,2013-07-17 19:55:00
3:15 PM,93.2,73.4,52,30.25,10.0,SW,5.8,-,N/A,,Mostly Cloudy,220,2013-07-17 20:15:00
3:35 PM,95.0,73.4,49,30.25,10.0,SSW,6.9,-,N/A,,Scattered Clouds,210,2013-07-17 20:35:00
3:55 PM,93.2,73.4,52,30.25,10.0,SSW,5.8,-,N/A,,Clear,200,2013-07-17 20:55:00
4:15 PM,95.0,73.4,49,30.24,10.0,SW,5.8,-,N/A,,Clear,230,2013-07-17 21:15:00
4:35 PM,95.0,73.4,49,30.23,10.0,SW,8.1,-,N/A,,Clear,230,2013-07-17 21:35:00
4:55 PM,95.0,73.4,49,30.23,10.0,West,8.1,-,N/A,,Clear,270,2013-07-17 21:55:00
5:15 PM,93.2,73.4,52,30.22,10.0,WSW,6.9,-,N/A,,Clear,240,2013-07-17 22:15:00
5:35 PM,93.2,73.4,52,30.22,10.0,West,8.1,-,N/A,,Clear,260,2013-07-17 22:35:00
5:55 PM,93.2,71.6,49,30.22,10.0,WSW,5.8,-,N/A,,Clear,240,2013-07-17 22:55:00
6:15 PM,93.2,71.6,49,30.22,10.0,West,5.8,-,N/A,,Clear,260,2013-07-17 23:15:00
6:35 PM,93.2,71.6,49,30.21,10.0,WSW,4.6,-,N/A,,Clear,250,2013-07-17 23:35:00
6:55 PM,91.4,73.4,55,30.20,10.0,WSW,4.6,-,N/A,,Clear,240,2013-07-17 23:55:00
7:15 PM,91.4,73.4,55,30.20,10.0,WSW,5.8,-,N/A,,Clear,240,2013-07-18 00:15:00
7:35 PM,89.6,73.4,59,30.20,10.0,WSW,4.6,-,N/A,,Clear,240,2013-07-18 00:35:00
7:55 PM,87.8,73.4,62,30.20,10.0,WSW,4.6,-,N/A,,Clear,240,2013-07-18 00:55:00
8:15 PM,84.2,73.4,70,30.20,10.0,Calm,Calm,-,N/A,,Clear,0,2013-07-18 01:15:00
8:35 PM,82.4,73.4,74,30.20,10.0,Calm,Calm,-,N/A,,Clear,0,2013-07-18 01:35:00
8:55 PM,82.4,73.4,74,30.20,10.0,Calm,Calm,-,N/A,,Clear,0,2013-07-18 01:55:00
9:15 PM,80.6,73.4,79,30.20,10.0,Calm,Calm,-,N/A,,Clear,0,2013-07-18 02:15:00
9:35 PM,80.6,73.4,79,30.20,10.0,Calm,Calm,-,N/A,,Clear,0,2013-07-18 02:35:00
9:55 PM,80.6,73.4,79,30.20,10.0,Calm,Calm,-,N/A,,Clear,0,2013-07-18 02:55:00
10:15 PM,80.6,73.4,79,30.21,10.0,Calm,Calm,-,N/A,,Clear,0,2013-07-18 03:15:00
10:35 PM,80.6,73.4,79,30.20,10.0,Calm,Calm,-,N/A,,Clear,0,2013-07-18 03:35:00
10:55 PM,78.8,73.4,83,30.20,10.0,WSW,3.5,-,N/A,,Clear,240,2013-07-18 03:55:00
11:15 PM,80.6,73.4,79,30.21,10.0,Calm,Calm,-,N/A,,Clear,0,2013-07-18 04:15:00
11:35 PM,80.6,73.4,79,30.21,10.0,Calm,Calm,-,N/A,,Clear,0,2013-07-18 04:35:00
11:55 PM,78.8,73.4,83,30.21,10.0,Calm,Calm,-,N/A,,Clear,0,2013-07-18 04:55:00